• In Hungary
  • List of Countries
  • For 7 days
  • Water Temperature
  • Satellite Maps
  • Weather Map
  • News
  • Weather Widgets
  • user-avatar
    Login

    Hourly Weather Ordino

    Today, 17 January, Wednesday

    Time Temperature Precipitation Wind Pressure Humidity
    00:00 0°C° 0 mm 4 mps 631 mmHg 83%
    01:00 0°C° 0.1 mm 4 mps 631 mmHg 84%
    02:00 -1°C° 0.1 mm 4 mps 631 mmHg 86%
    03:00 -1°C° 0.1 mm 4 mps 631 mmHg 88%
    04:00 -1°C° 0.1 mm 4 mps 631 mmHg 87%
    05:00 -1°C° 0.1 mm 4 mps 632 mmHg 86%
    06:00 -1°C° 0 mm 4 mps 632 mmHg 85%
    07:00 -1°C° 0.1 mm 4 mps 632 mmHg 82%
    08:00 -1°C° 0.1 mm 4 mps 633 mmHg 79%
    09:00 -1°C° 0.1 mm 4 mps 633 mmHg 76%
    10:00 0°C° 0 mm 5 mps 634 mmHg 73%
    11:00 0°C° 0 mm 5 mps 634 mmHg 70%
    12:00 +1°C° 0 mm 4 mps 635 mmHg 68%
    13:00 +1°C° 0 mm 4 mps 635 mmHg 67%
    14:00 +1°C° 0 mm 4 mps 635 mmHg 66%
    15:00 +1°C° 0 mm 4 mps 635 mmHg 65%
    16:00 -1°C° 0 mm 4 mps 635 mmHg 69%
    17:00 -1°C° 0 mm 3 mps 635 mmHg 73%
    18:00 -4°C° 0 mm 3 mps 635 mmHg 77%
    19:00 -4°C° 0 mm 3 mps 635 mmHg 76%
    20:00 -3°C° 0 mm 2 mps 635 mmHg 76%
    21:00 -4°C° 0 mm 2 mps 636 mmHg 75%
    22:00 -4°C° 0 mm 2 mps 636 mmHg 74%
    23:00 -4°C° 0 mm 2 mps 636 mmHg 74%

    Tomorrow, 18 January, Thursday

    Time Temperature Precipitation Wind Pressure Humidity
    00:00 -4°C° 0 mm 2 mps 636 mmHg 73%
    01:00 -4°C° 0 mm 2 mps 635 mmHg 72%
    02:00 -2°C° 0 mm 1 mps 635 mmHg 71%
    03:00 -2°C° 0 mm 1 mps 635 mmHg 70%
    04:00 -2°C° 0 mm 1 mps 635 mmHg 69%
    05:00 -2°C° 0 mm 1 mps 635 mmHg 68%
    06:00 -1°C° 0 mm 1 mps 635 mmHg 67%
    07:00 0°C° 0 mm 1 mps 635 mmHg 66%
    08:00 +1°C° 0 mm 1 mps 636 mmHg 64%
    09:00 +2°C° 0 mm 1 mps 636 mmHg 63%
    10:00 +3°C° 0 mm 1 mps 636 mmHg 62%
    11:00 +5°C° 0 mm 1 mps 636 mmHg 62%
    12:00 +6°C° 0 mm 1 mps 637 mmHg 61%
    13:00 +6°C° 0 mm 1 mps 636 mmHg 62%
    14:00 +6°C° 0 mm 1 mps 636 mmHg 64%
    15:00 +6°C° 0 mm 1 mps 635 mmHg 66%
    16:00 +4°C° 0 mm 1 mps 634 mmHg 71%
    17:00 +3°C° 0 mm 1 mps 634 mmHg 76%
    18:00 -1°C° 0 mm 2 mps 633 mmHg 81%
    19:00 -1°C° 0 mm 2 mps 633 mmHg 80%
    20:00 -1°C° 0 mm 2 mps 633 mmHg 78%
    21:00 -1°C° 0 mm 2 mps 633 mmHg 76%
    22:00 -1°C° 0 mm 2 mps 633 mmHg 76%
    23:00 -2°C° 0 mm 2 mps 633 mmHg 76%

    Day after tomorrow, 19 January, Friday

    Time Temperature Precipitation Wind Pressure Humidity
    00:00 -2°C° 0 mm 2 mps 633 mmHg 76%
    01:00 -1°C° 0 mm 2 mps 632 mmHg 78%
    02:00 -1°C° 0 mm 2 mps 632 mmHg 79%
    03:00 -1°C° 0 mm 2 mps 632 mmHg 81%
    04:00 -1°C° 0 mm 2 mps 632 mmHg 82%
    05:00 -1°C° 0 mm 2 mps 632 mmHg 82%
    06:00 -1°C° 0 mm 2 mps 631 mmHg 83%
    07:00 +1°C° 0 mm 2 mps 632 mmHg 81%
    08:00 +1°C° 0 mm 2 mps 632 mmHg 78%
    09:00 +2°C° 0 mm 2 mps 633 mmHg 76%
    10:00 +3°C° 0.1 mm 2 mps 633 mmHg 74%
    11:00 +4°C° 0.1 mm 2 mps 634 mmHg 73%
    12:00 +5°C° 0.1 mm 2 mps 634 mmHg 71%
    13:00 +4°C° 0 mm 3 mps 634 mmHg 70%
    14:00 +4°C° 0 mm 3 mps 634 mmHg 69%
    15:00 +3°C° 0 mm 3 mps 633 mmHg 68%
    16:00 +2°C° 0 mm 3 mps 633 mmHg 72%
    17:00 0°C° 0 mm 3 mps 633 mmHg 77%
    18:00 -2°C° 0 mm 3 mps 633 mmHg 81%
    19:00 -2°C° 0 mm 3 mps 633 mmHg 79%
    20:00 -2°C° 0 mm 3 mps 633 mmHg 76%
    21:00 -4°C° 0 mm 3 mps 633 mmHg 74%
    22:00 -4°C° 0 mm 3 mps 634 mmHg 76%
    23:00 -2°C° 0 mm 3 mps 634 mmHg 77%

    20 January, Saturday

    Time Temperature Precipitation Wind Pressure Humidity
    00:00 -2°C° 0 mm 3 mps 634 mmHg 79%
    01:00 -2°C° 0 mm 2 mps 634 mmHg 80%
    02:00 -2°C° 0 mm 2 mps 634 mmHg 80%
    03:00 -2°C° 0 mm 2 mps 634 mmHg 81%
    04:00 -2°C° 0 mm 2 mps 633 mmHg 81%
    05:00 -2°C° 0 mm 2 mps 633 mmHg 82%
    06:00 -2°C° 0 mm 2 mps 633 mmHg 82%
    07:00 -2°C° 0 mm 2 mps 634 mmHg 79%
    08:00 -1°C° 0 mm 2 mps 634 mmHg 75%
    09:00 +2°C° 0 mm 1 mps 634 mmHg 72%
    10:00 +2°C° 0 mm 2 mps 634 mmHg 69%
    11:00 +3°C° 0 mm 2 mps 634 mmHg 66%
    12:00 +5°C° 0 mm 2 mps 634 mmHg 63%
    13:00 +3°C° 0.6 mm 3 mps 633 mmHg 68%
    14:00 +3°C° 0.6 mm 3 mps 633 mmHg 73%
    15:00 +3°C° 0.6 mm 3 mps 632 mmHg 78%
    16:00 +2°C° 0.7 mm 3 mps 632 mmHg 82%
    17:00 +1°C° 0.7 mm 4 mps 632 mmHg 85%
    18:00 +1°C° 0.7 mm 4 mps 631 mmHg 89%
    19:00 +1°C° 0.5 mm 4 mps 632 mmHg 89%
    20:00 +1°C° 0.5 mm 4 mps 632 mmHg 90%
    21:00 +1°C° 0.5 mm 4 mps 633 mmHg 91%
    22:00 +1°C° 0.5 mm 4 mps 633 mmHg 90%
    23:00 +1°C° 0.5 mm 4 mps 634 mmHg 90%

    21 January, Sunday

    Time Temperature Precipitation Wind Pressure Humidity
    00:00 +3°C° 0.5 mm 3 mps 634 mmHg 90%
    01:00 +3°C° 0.4 mm 3 mps 634 mmHg 90%
    02:00 +3°C° 0.4 mm 3 mps 634 mmHg 89%
    03:00 +3°C° 0.4 mm 3 mps 635 mmHg 89%
    04:00 +3°C° 0.3 mm 3 mps 635 mmHg 89%
    05:00 +2°C° 0.3 mm 3 mps 635 mmHg 89%
    06:00 +2°C° 0.3 mm 3 mps 635 mmHg 89%
    07:00 +3°C° 0.2 mm 3 mps 636 mmHg 88%
    08:00 +3°C° 0.2 mm 3 mps 637 mmHg 87%
    09:00 +3°C° 0.2 mm 3 mps 637 mmHg 86%
    10:00 +4°C° 0.1 mm 3 mps 638 mmHg 83%
    11:00 +5°C° 0.1 mm 3 mps 638 mmHg 80%
    12:00 +5°C° 0.1 mm 3 mps 639 mmHg 78%
    13:00 +5°C° 0 mm 3 mps 639 mmHg 76%
    14:00 +5°C° 0 mm 3 mps 639 mmHg 75%
    15:00 +5°C° 0 mm 3 mps 639 mmHg 74%
    16:00 +4°C° 0 mm 3 mps 638 mmHg 77%
    17:00 +3°C° 0 mm 3 mps 638 mmHg 81%
    18:00 +2°C° 0 mm 3 mps 638 mmHg 84%
    19:00 +1°C° 0 mm 3 mps 638 mmHg 84%
    20:00 +1°C° 0 mm 3 mps 639 mmHg 84%
    21:00 +1°C° 0 mm 3 mps 639 mmHg 83%
    22:00 +1°C° 0 mm 3 mps 639 mmHg 83%
    23:00 0°C° 0 mm 3 mps 639 mmHg 83%

    22 January, Monday

    Time Temperature Precipitation Wind Pressure Humidity
    00:00 +1°C° 0 mm 2 mps 639 mmHg 83%
    01:00 +1°C° 0 mm 2 mps 638 mmHg 83%
    02:00 +1°C° 0 mm 2 mps 638 mmHg 83%
    03:00 +1°C° 0 mm 2 mps 638 mmHg 83%
    04:00 +1°C° 0 mm 2 mps 638 mmHg 82%
    05:00 +1°C° 0 mm 2 mps 638 mmHg 82%
    06:00 +1°C° 0 mm 2 mps 638 mmHg 81%
    07:00 +2°C° 0 mm 2 mps 639 mmHg 78%
    08:00 +3°C° 0 mm 2 mps 639 mmHg 75%
    09:00 +4°C° 0 mm 2 mps 640 mmHg 72%
    10:00 +5°C° 0 mm 2 mps 640 mmHg 69%
    11:00 +7°C° 0 mm 2 mps 641 mmHg 66%
    12:00 +8°C° 0 mm 2 mps 641 mmHg 63%
    13:00 +8°C° 0 mm 2 mps 641 mmHg 64%
    14:00 +8°C° 0 mm 2 mps 640 mmHg 65%
    15:00 +8°C° 0 mm 2 mps 640 mmHg 66%
    16:00 +6°C° 0 mm 2 mps 640 mmHg 71%
    17:00 +4°C° 0 mm 2 mps 639 mmHg 75%
    18:00 +3°C° 0 mm 2 mps 639 mmHg 80%
    19:00 +2°C° 0 mm 2 mps 639 mmHg 76%
    20:00 +2°C° 0 mm 2 mps 639 mmHg 71%
    21:00 +2°C° 0 mm 2 mps 639 mmHg 67%
    22:00 +2°C° 0 mm 2 mps 639 mmHg 65%
    23:00 +2°C° 0 mm 2 mps 639 mmHg 62%
    Show more